TimeCST,TemperatureF,Dew PointF,Humidity,Sea Level PressureIn,VisibilityMPH,Wind Direction,Wind SpeedMPH,Gust SpeedMPH,PrecipitationIn,Events,Conditions,WindDirDegrees,DateUTC
12:55 AM,30.6,30.0,98,30.21,6.0,Calm,Calm,-,N/A,,Clear,0,2012-11-08 06:55:00
1:21 AM,30.2,30.2,100,30.21,4.0,Calm,Calm,-,N/A,,Clear,0,2012-11-08 07:21:00
1:34 AM,30.2,30.2,100,30.21,5.0,Calm,Calm,-,N/A,,Clear,0,2012-11-08 07:34:00
1:55 AM,29.8,29.7,99,30.22,5.0,Calm,Calm,-,N/A,,Clear,0,2012-11-08 07:55:00
1:58 AM,30.2,30.2,100,30.22,1.0,Calm,Calm,-,N/A,,Clear,0,2012-11-08 07:58:00
2:09 AM,30.2,30.2,100,30.22,4.0,Calm,Calm,-,N/A,,Clear,0,2012-11-08 08:09:00
2:19 AM,30.2,30.2,100,30.22,2.5,Calm,Calm,-,N/A,,Clear,0,2012-11-08 08:19:00
2:39 AM,30.2,28.4,93,30.22,2.0,Calm,Calm,-,N/A,,Clear,0,2012-11-08 08:39:00
2:40 AM,30.2,28.4,93,30.22,2.5,Calm,Calm,-,N/A,,Clear,0,2012-11-08 08:40:00
2:55 AM,29.5,29.1,99,30.22,8.0,Calm,Calm,-,N/A,,Clear,0,2012-11-08 08:55:00
3:48 AM,28.4,28.4,100,30.22,1.5,Calm,Calm,-,N/A,,Clear,0,2012-11-08 09:48:00
3:53 AM,28.4,28.4,100,30.22,1.5,Calm,Calm,-,N/A,,Clear,0,2012-11-08 09:53:00
3:54 AM,28.4,28.4,100,30.22,1.8,Calm,Calm,-,N/A,,Clear,0,2012-11-08 09:54:00
3:55 AM,28.2,28.0,99,30.22,1.5,Calm,Calm,-,N/A,,Clear,0,2012-11-08 09:55:00
4:03 AM,28.4,28.4,100,30.22,1.2,Calm,Calm,-,N/A,,Clear,0,2012-11-08 10:03:00
4:04 AM,28.4,28.4,100,30.22,1.0,Calm,Calm,-,N/A,,Clear,0,2012-11-08 10:04:00
4:10 AM,28.4,28.4,100,30.22,0.5,Calm,Calm,-,N/A,Fog,Light Freezing Fog,0,2012-11-08 10:10:00
4:11 AM,28.4,28.4,100,30.22,0.5,Calm,Calm,-,N/A,Fog,Light Freezing Fog,0,2012-11-08 10:11:00
4:27 AM,28.4,28.4,100,30.23,0.5,Calm,Calm,-,N/A,Fog,Light Freezing Fog,0,2012-11-08 10:27:00
4:28 AM,28.4,28.4,100,30.23,0.8,Calm,Calm,-,N/A,,Clear,0,2012-11-08 10:28:00
4:40 AM,28.4,26.6,93,30.23,0.8,Calm,Calm,-,N/A,,Clear,0,2012-11-08 10:40:00
4:43 AM,28.4,28.4,100,30.23,0.5,Calm,Calm,-,N/A,Fog,Light Freezing Fog,0,2012-11-08 10:43:00
4:55 AM,27.9,27.7,99,30.23,0.5,Calm,Calm,-,N/A,Fog,Light Freezing Fog,0,2012-11-08 10:55:00
5:15 AM,28.4,28.4,100,30.23,0.5,Calm,Calm,-,N/A,Fog,Light Freezing Fog,0,2012-11-08 11:15:00
5:25 AM,28.4,28.4,100,30.23,1.2,Calm,Calm,-,N/A,,Clear,0,2012-11-08 11:25:00
5:34 AM,28.4,28.4,100,30.23,1.5,Calm,Calm,-,N/A,,Clear,0,2012-11-08 11:34:00
5:35 AM,28.4,28.4,100,30.23,1.5,Calm,Calm,-,N/A,,Clear,0,2012-11-08 11:35:00
5:37 AM,28.4,28.4,100,30.23,1.5,Calm,Calm,-,N/A,,Clear,0,2012-11-08 11:37:00
5:41 AM,28.4,28.4,100,30.23,2.5,Calm,Calm,-,N/A,,Clear,0,2012-11-08 11:41:00
5:55 AM,28.2,28.0,99,30.23,7.0,Calm,Calm,-,N/A,,Clear,0,2012-11-08 11:55:00
6:15 AM,28.4,26.6,93,30.23,6.0,Calm,Calm,-,N/A,,Clear,0,2012-11-08 12:15:00
6:55 AM,27.5,27.1,99,30.24,6.0,Calm,Calm,-,N/A,,Clear,0,2012-11-08 12:55:00
7:55 AM,30.7,30.4,99,30.27,6.0,Calm,Calm,-,N/A,,Clear,0,2012-11-08 13:55:00
8:55 AM,38.7,38.5,99,30.26,10.0,Calm,Calm,-,N/A,,Clear,0,2012-11-08 14:55:00
9:55 AM,45.5,39.0,78,30.26,10.0,South,5.8,-,N/A,,Clear,190,2012-11-08 15:55:00
10:55 AM,49.5,38.1,65,30.24,10.0,South,6.9,-,N/A,,Clear,170,2012-11-08 16:55:00
11:55 AM,52.3,39.0,61,30.21,10.0,South,11.5,-,N/A,,Clear,170,2012-11-08 17:55:00
1:55 PM,55.9,39.2,53,30.15,10.0,SSE,5.8,17.3,N/A,,Clear,160,2012-11-08 19:55:00
2:55 PM,55.6,40.3,56,30.14,10.0,South,10.4,-,N/A,,Clear,180,2012-11-08 20:55:00
3:55 PM,54.7,40.1,58,30.13,10.0,SSE,8.1,-,N/A,,Clear,160,2012-11-08 21:55:00
4:55 PM,50.9,39.7,66,30.13,10.0,South,10.4,-,N/A,,Clear,170,2012-11-08 22:55:00
5:55 PM,46.8,39.4,75,30.14,10.0,SSE,8.1,-,N/A,,Clear,150,2012-11-08 23:55:00
6:55 PM,47.5,39.4,73,30.13,10.0,SSE,9.2,-,N/A,,Clear,160,2012-11-09 00:55:00
7:55 PM,46.0,39.6,78,30.12,10.0,SSE,9.2,-,N/A,,Clear,160,2012-11-09 01:55:00
8:55 PM,44.1,38.7,81,30.12,10.0,SSE,6.9,-,N/A,,Clear,160,2012-11-09 02:55:00
9:55 PM,44.1,38.8,82,30.10,10.0,South,6.9,-,N/A,,Clear,170,2012-11-09 03:55:00
10:55 PM,42.3,37.9,85,30.09,10.0,South,6.9,-,N/A,,Clear,170,2012-11-09 04:55:00
11:55 PM,42.1,37.8,85,30.09,10.0,SSE,5.8,-,N/A,,Clear,150,2012-11-09 05:55:00